星链-30075 (STARLINK-30075 )

导读 | 豆包AI

STARLINK-30075是美国SpaceX星链互联网卫星星座的一员,于2023年8月11日发射入轨,属于星链低轨卫星组网的补充发射任务。星链系统旨在为全球提供高速宽带互联网服务,该卫星延续了星链批量生产、部署的模式,依托猎鹰九号火箭执行发射任务,服役后将参与星座运营,提升全球覆盖容量与服务稳定性。

基本信息
目录编号:
57616
目录名称:
STARLINK-30075
国际标识:
2023-119Q
轨道中心:
EARTH
卫星名称:
星链-30075
卫星全名:
星链-30075 (STARLINK-30075 )
卫星状态:
在轨 (已飞行947 天)
发射日期:
2023-08-11 UTC
国别 :
美国 (US)
星等 :
--
轨道信息
数据来源 国际轨道数据
星历时间: 2026-03-15T22:00:02+0800
9小时前
查看轨道信息
半长轴: 6863.685km
偏心率: 0.0001254
轨道倾角: 43.001°
近地点辐角 264.813°
升交点赤经 47.793°
平近点角 95.024°
近地点: 484.687km
远地点: 486.409km
周期: 94.318分钟
每日圈数: 15.267459
详细信息
固有亮度:
5
最大亮度:
0.3
卫星平台:
Starlink v2.0 mini
覆盖范围:
全球
运营商:
太空探索技术公司
运营商所在国:
美国
制造商(研发单位):
太空探索技术公司
制造商所在国:
美国
使用方式:
暂无
卫星简介
星链(Starlink)计划是由太空探索技术公司(SpaceX)提出的一个巨型低轨卫星互联网星座项目,计划在2019年至2024年间在太空搭建由约1.2万颗卫星组成的“星链”网络,其中1584颗将部署在地球上空550千米处的近地轨道,并从2020年开始工作。该卫星仍在工作。
2D轨道图
3D轨道图
轨道高度分析图
轨道倾角分析图
轨道综合分析图
查看轨道综合分析图